Location: Newark
(44.4156°N, 12.1972°E)
Time: 02:31:43
(UTC+00:00)

STARLINK-1121 - Pass Details

Date: 31 January 2020
Orbit: 549 x 550 km, 53.0° (Epoch: 23 February)

Event Time Altitude Azimuth Distance (km) Brightness Sun altitude
Rises 17:12:01 0° 304° (WNW) 2,726 7.8 -9.9°
Reaches altitude 10° 17:14:16 10° 306° (NW) 1,830 6.9 -10.3°
Maximum altitude 17:18:25 74° 31° (NNE) 576 3.6 -11.0°
Drops below altitude 10° 17:22:33 10° 118° (ESE) 1,822 5.8 -11.7°
Enters shadow 17:22:36 10° 118° (ESE) 1,841 5.8 -11.7°
